Time,TemperatureF,DewpointF,PressureIn,WindDirection,WindDirectionDegrees,WindSpeedMPH,WindSpeedGustMPH,Humidity,HourlyPrecipIn,Conditions,Clouds,dailyrainin,SoftwareType,DateUTC
2015-01-30 00:00:00,36.6,31.9,30.28,NW,326,0.0,0.0,83,0.00,,,0.02,Wunderground v.1.15,2015-01-30 05:00:00,
2015-01-30 00:10:00,36.4,32.0,30.28,NNW,339,0.0,0.0,84,0.00,,,0.00,Wunderground v.1.15,2015-01-30 05:10:00,
2015-01-30 00:19:00,36.3,32.2,30.28,NW,321,0.0,0.0,85,0.00,,,0.00,Wunderground v.1.15,2015-01-30 05:19:00,
2015-01-30 00:30:00,36.2,32.1,30.28,NNW,333,0.0,0.0,85,0.00,,,0.00,Wunderground v.1.15,2015-01-30 05:30:00,
2015-01-30 00:40:00,36.2,31.5,30.28,NW,323,0.0,0.0,83,0.00,,,0.00,Wunderground v.1.15,2015-01-30 05:40:00,
2015-01-30 00:50:00,36.4,30.8,30.28,NNW,327,0.0,0.0,80,0.00,,,0.00,Wunderground v.1.15,2015-01-30 05:50:00,
2015-01-30 01:00:00,36.6,30.4,30.28,NNW,335,0.0,0.0,78,0.00,,,0.00,Wunderground v.1.15,2015-01-30 06:00:00,
2015-01-30 01:10:00,36.6,30.1,30.28,North,5,0.0,0.0,77,0.00,,,0.00,Wunderground v.1.15,2015-01-30 06:10:00,
2015-01-30 01:20:00,36.7,29.5,30.28,NW,326,0.0,0.0,75,0.00,,,0.00,Wunderground v.1.15,2015-01-30 06:20:00,
2015-01-30 01:30:00,36.8,29.9,30.28,NNW,346,0.0,0.0,76,0.00,,,0.00,Wunderground v.1.15,2015-01-30 06:30:00,
2015-01-30 01:40:00,36.8,29.6,30.29,NNW,337,0.0,0.0,75,0.00,,,0.00,Wunderground v.1.15,2015-01-30 06:40:00,
2015-01-30 01:50:00,36.8,29.6,30.29,NNE,24,0.0,0.0,75,0.00,,,0.00,Wunderground v.1.15,2015-01-30 06:50:00,
2015-01-30 02:00:00,36.6,29.4,30.29,NW,313,0.0,0.0,75,0.00,,,0.00,Wunderground v.1.15,2015-01-30 07:00:00,
2015-01-30 02:09:00,36.6,29.1,30.30,North,5,0.0,0.0,74,0.00,,,0.00,Wunderground v.1.15,2015-01-30 07:09:00,
2015-01-30 02:20:00,36.5,28.3,30.30,NE,36,0.0,0.0,72,0.00,,,0.00,Wunderground v.1.15,2015-01-30 07:20:00,
2015-01-30 02:30:00,36.5,28.3,30.30,NNE,23,0.0,0.0,72,0.00,,,0.00,Wunderground v.1.15,2015-01-30 07:30:00,
2015-01-30 02:40:00,36.4,27.9,30.31,NW,325,0.0,0.0,71,0.00,,,0.00,Wunderground v.1.15,2015-01-30 07:40:00,
2015-01-30 02:49:00,36.4,28.2,30.31,NNW,331,0.0,0.0,72,0.00,,,0.00,Wunderground v.1.15,2015-01-30 07:49:00,
2015-01-30 03:00:00,36.4,28.2,30.31,WNW,303,0.0,0.0,72,0.00,,,0.00,Wunderground v.1.15,2015-01-30 08:00:00,
2015-01-30 03:10:00,36.3,28.5,30.31,NNW,327,0.0,0.0,73,0.00,,,0.00,Wunderground v.1.15,2015-01-30 08:10:00,
2015-01-30 03:20:00,36.2,28.4,30.31,NW,321,0.0,0.0,73,0.00,,,0.00,Wunderground v.1.15,2015-01-30 08:20:00,
2015-01-30 03:29:00,36.1,28.3,30.32,WNW,292,0.0,0.0,73,0.00,,,0.00,Wunderground v.1.15,2015-01-30 08:29:00,
2015-01-30 03:39:00,36.0,28.5,30.32,NW,321,0.0,0.0,74,0.00,,,0.00,Wunderground v.1.15,2015-01-30 08:39:00,
2015-01-30 03:50:00,36.0,28.8,30.33,NW,326,0.0,0.0,75,0.00,,,0.00,Wunderground v.1.15,2015-01-30 08:50:00,
2015-01-30 04:00:00,35.8,29.0,30.33,NW,322,0.0,0.0,76,0.00,,,0.00,Wunderground v.1.15,2015-01-30 09:00:00,
2015-01-30 04:09:00,35.7,29.2,30.33,NNW,336,0.0,0.0,77,0.00,,,0.00,Wunderground v.1.15,2015-01-30 09:09:00,
2015-01-30 04:20:00,35.5,29.3,30.33,NW,318,0.0,0.0,78,0.00,,,0.00,Wunderground v.1.15,2015-01-30 09:20:00,
2015-01-30 04:30:00,35.4,29.2,30.33,NW,315,0.0,0.0,78,0.00,,,0.00,Wunderground v.1.15,2015-01-30 09:30:00,
2015-01-30 04:40:00,35.3,29.4,30.34,NW,322,0.0,0.0,79,0.00,,,0.00,Wunderground v.1.15,2015-01-30 09:40:00,
2015-01-30 04:49:00,35.2,29.0,30.34,NW,309,0.0,0.0,78,0.00,,,0.00,Wunderground v.1.15,2015-01-30 09:49:00,
2015-01-30 05:00:00,35.1,29.2,30.34,NW,317,0.0,0.0,79,0.00,,,0.00,Wunderground v.1.15,2015-01-30 10:00:00,
2015-01-30 05:10:00,35.1,28.9,30.35,NW,312,0.0,0.0,78,0.00,,,0.00,Wunderground v.1.15,2015-01-30 10:10:00,
2015-01-30 05:19:00,35.0,28.5,30.35,NNW,333,0.0,0.0,77,0.00,,,0.00,Wunderground v.1.15,2015-01-30 10:19:00,
2015-01-30 05:29:00,35.0,28.8,30.35,NNW,344,0.0,0.0,78,0.00,,,0.00,Wunderground v.1.15,2015-01-30 10:29:00,
2015-01-30 05:40:00,34.9,28.4,30.35,NNW,338,0.0,0.0,77,0.00,,,0.00,Wunderground v.1.15,2015-01-30 10:40:00,
2015-01-30 05:50:00,34.9,28.4,30.36,NNW,344,0.0,0.0,77,0.00,,,0.00,Wunderground v.1.15,2015-01-30 10:50:00,
2015-01-30 06:00:00,34.8,28.3,30.36,NNW,343,0.0,0.0,77,0.00,,,0.00,Wunderground v.1.15,2015-01-30 11:00:00,
2015-01-30 06:10:00,34.8,28.3,30.36,NW,306,0.0,0.0,77,0.00,,,0.00,Wunderground v.1.15,2015-01-30 11:10:00,
2015-01-30 06:20:00,34.7,28.2,30.37,NW,311,0.0,0.0,77,0.00,,,0.00,Wunderground v.1.15,2015-01-30 11:20:00,
2015-01-30 06:30:00,34.7,28.2,30.37,NW,325,0.0,0.0,77,0.00,,,0.00,Wunderground v.1.15,2015-01-30 11:30:00,
2015-01-30 06:39:00,34.6,27.8,30.37,NW,316,0.0,0.0,76,0.00,,,0.00,Wunderground v.1.15,2015-01-30 11:39:00,
2015-01-30 06:50:00,34.4,27.9,30.38,NNE,22,0.0,0.0,77,0.00,,,0.00,Wunderground v.1.15,2015-01-30 11:50:00,
2015-01-30 07:00:00,34.4,27.6,30.39,NW,321,0.0,0.0,76,0.00,,,0.00,Wunderground v.1.15,2015-01-30 12:00:00,
2015-01-30 07:10:00,34.3,27.5,30.39,NW,323,0.0,0.0,76,0.00,,,0.00,Wunderground v.1.15,2015-01-30 12:10:00,
2015-01-30 07:19:00,34.3,27.5,30.40,North,351,0.0,0.0,76,0.00,,,0.00,Wunderground v.1.15,2015-01-30 12:19:00,
2015-01-30 07:30:00,34.3,27.2,30.40,North,355,0.0,0.0,75,0.00,,,0.00,Wunderground v.1.15,2015-01-30 12:30:00,
2015-01-30 07:40:00,34.1,26.7,30.41,NNW,341,0.0,0.0,74,0.00,,,0.00,Wunderground v.1.15,2015-01-30 12:40:00,
2015-01-30 07:50:00,33.9,26.2,30.41,NNW,347,0.0,0.0,73,0.00,,,0.00,Wunderground v.1.15,2015-01-30 12:50:00,
2015-01-30 08:00:00,33.6,26.2,30.42,North,5,0.0,0.0,74,0.00,,,0.00,Wunderground v.1.15,2015-01-30 13:00:00,
2015-01-30 08:10:00,33.3,25.6,30.42,NNW,340,0.0,0.0,73,0.00,,,0.00,Wunderground v.1.15,2015-01-30 13:10:00,
2015-01-30 08:20:00,32.9,25.2,30.43,NW,323,0.0,0.0,73,0.00,,,0.00,Wunderground v.1.15,2015-01-30 13:20:00,
2015-01-30 08:29:00,32.6,24.9,30.43,North,360,0.0,0.0,73,0.00,,,0.00,Wunderground v.1.15,2015-01-30 13:29:00,
2015-01-30 08:40:00,32.4,25.0,30.44,NE,43,0.0,0.0,74,0.00,,,0.00,Wunderground v.1.15,2015-01-30 13:40:00,
2015-01-30 08:50:00,32.3,24.9,30.44,ESE,115,0.0,0.0,74,0.00,,,0.00,Wunderground v.1.15,2015-01-30 13:50:00,
2015-01-30 09:00:00,32.2,24.8,30.45,NNE,14,0.0,0.0,74,0.00,,,0.00,Wunderground v.1.15,2015-01-30 14:00:00,
2015-01-30 09:10:00,32.2,24.8,30.46,NNE,13,0.0,0.0,74,0.00,,,0.00,Wunderground v.1.15,2015-01-30 14:10:00,
2015-01-30 09:20:00,32.3,24.9,30.46,NNE,24,0.0,0.0,74,0.00,,,0.00,Wunderground v.1.15,2015-01-30 14:20:00,
2015-01-30 09:30:00,32.6,24.2,30.46,NNW,333,0.0,0.0,71,0.00,,,0.00,Wunderground v.1.15,2015-01-30 14:30:00,
2015-01-30 09:39:00,32.4,22.7,30.46,NNE,15,0.0,0.0,67,0.00,,,0.00,Wunderground v.1.15,2015-01-30 14:39:00,
2015-01-30 09:50:00,32.4,24.7,30.47,NE,55,0.0,0.0,73,0.00,,,0.00,Wunderground v.1.15,2015-01-30 14:50:00,
2015-01-30 10:00:00,32.3,24.9,30.47,North,350,0.0,0.0,74,0.00,,,0.00,Wunderground v.1.15,2015-01-30 15:00:00,
2015-01-30 10:10:00,32.3,24.6,30.48,North,11,0.0,0.0,73,0.00,,,0.00,Wunderground v.1.15,2015-01-30 15:10:00,
2015-01-30 10:19:00,32.8,24.1,30.48,NNW,327,0.0,0.0,70,0.00,,,0.00,Wunderground v.1.15,2015-01-30 15:19:00,
2015-01-30 10:30:00,32.6,24.2,30.49,NE,55,0.0,0.0,71,0.00,,,0.00,Wunderground v.1.15,2015-01-30 15:30:00,
2015-01-30 10:40:00,32.5,23.8,30.49,ENE,67,0.0,0.0,70,0.00,,,0.00,Wunderground v.1.15,2015-01-30 15:40:00,
2015-01-30 10:50:00,32.3,23.3,30.50,NNE,28,0.0,5.0,69,0.00,,,0.00,Wunderground v.1.15,2015-01-30 15:50:00,
2015-01-30 11:00:00,33.2,23.8,30.50,ENE,59,3.0,3.0,68,0.00,,,0.00,Wunderground v.1.15,2015-01-30 16:00:00,
2015-01-30 11:10:00,33.4,22.5,30.51,ENE,59,4.0,4.0,64,0.00,,,0.00,Wunderground v.1.15,2015-01-30 16:10:00,
2015-01-30 11:20:00,33.9,21.9,30.51,NE,43,3.0,3.0,61,0.00,,,0.00,Wunderground v.1.15,2015-01-30 16:20:00,
2015-01-30 11:30:00,34.1,20.9,30.51,NW,325,4.0,7.0,58,0.00,,,0.00,Wunderground v.1.15,2015-01-30 16:30:00,
2015-01-30 11:39:00,33.9,19.8,30.51,NNW,340,5.0,5.0,56,0.00,,,0.00,Wunderground v.1.15,2015-01-30 16:39:00,
2015-01-30 11:49:00,34.0,19.1,30.50,North,355,5.0,11.0,54,0.00,,,0.00,Wunderground v.1.15,2015-01-30 16:49:00,
2015-01-30 12:00:00,34.5,19.5,30.50,NNW,346,4.0,4.0,54,0.00,,,0.00,Wunderground v.1.15,2015-01-30 17:00:00,
2015-01-30 12:09:00,35.0,19.6,30.50,North,11,3.0,3.0,53,0.00,,,0.00,Wunderground v.1.15,2015-01-30 17:09:00,
2015-01-30 12:19:00,34.9,18.1,30.49,ENE,63,3.0,3.0,50,0.00,,,0.00,Wunderground v.1.15,2015-01-30 17:19:00,
2015-01-30 12:30:00,35.0,17.7,30.49,NNE,29,3.0,3.0,49,0.00,,,0.00,Wunderground v.1.15,2015-01-30 17:30:00,
2015-01-30 12:40:00,34.9,18.6,30.49,NW,315,3.0,5.0,51,0.00,,,0.00,Wunderground v.1.15,2015-01-30 17:40:00,
2015-01-30 12:50:00,35.0,18.7,30.49,NE,53,3.0,3.0,51,0.00,,,0.00,Wunderground v.1.15,2015-01-30 17:50:00,
2015-01-30 13:00:00,36.1,20.2,30.48,NW,307,3.0,3.0,52,0.00,,,0.00,Wunderground v.1.15,2015-01-30 18:00:00,
2015-01-30 13:10:00,36.1,19.2,30.48,NE,41,3.0,4.0,50,0.00,,,0.00,Wunderground v.1.15,2015-01-30 18:10:00,
2015-01-30 13:20:00,36.1,19.7,30.48,North,350,3.0,7.0,51,0.00,,,0.00,Wunderground v.1.15,2015-01-30 18:20:00,
2015-01-30 13:29:00,36.2,18.9,30.47,ENE,71,3.0,4.0,49,0.00,,,0.00,Wunderground v.1.15,2015-01-30 18:29:00,
2015-01-30 13:39:00,36.3,18.5,30.47,ESE,116,4.0,4.0,48,0.00,,,0.00,Wunderground v.1.15,2015-01-30 18:39:00,
2015-01-30 13:50:00,36.1,19.2,30.46,NNW,331,3.0,3.0,50,0.00,,,0.00,Wunderground v.1.15,2015-01-30 18:50:00,
2015-01-30 14:00:00,36.6,19.7,30.46,NNE,26,3.0,3.0,50,0.00,,,0.00,Wunderground v.1.15,2015-01-30 19:00:00,
2015-01-30 14:10:00,37.1,19.7,30.45,NNW,327,3.0,4.0,49,0.00,,,0.00,Wunderground v.1.15,2015-01-30 19:10:00,
2015-01-30 14:20:00,37.8,19.8,30.44,North,350,2.0,4.0,48,0.00,,,0.00,Wunderground v.1.15,2015-01-30 19:20:00,
2015-01-30 14:30:00,37.3,20.3,30.44,NNE,33,3.0,5.0,50,0.00,,,0.00,Wunderground v.1.15,2015-01-30 19:30:00,
2015-01-30 14:40:00,37.0,18.1,30.44,ENE,59,4.0,4.0,46,0.00,,,0.00,Wunderground v.1.15,2015-01-30 19:40:00,
2015-01-30 14:50:00,36.8,17.9,30.44,ESE,117,3.0,3.0,46,0.00,,,0.00,Wunderground v.1.15,2015-01-30 19:50:00,
2015-01-30 15:00:00,37.3,18.9,30.45,North,360,2.0,5.0,47,0.00,,,0.00,Wunderground v.1.15,2015-01-30 20:00:00,
2015-01-30 15:10:00,37.7,19.3,30.45,NE,40,2.0,2.0,47,0.00,,,0.00,Wunderground v.1.15,2015-01-30 20:10:00,
2015-01-30 15:20:00,37.9,18.9,30.45,NNE,25,3.0,3.0,46,0.00,,,0.00,Wunderground v.1.15,2015-01-30 20:20:00,
2015-01-30 15:29:00,37.5,19.1,30.45,North,5,2.0,3.0,47,0.00,,,0.00,Wunderground v.1.15,2015-01-30 20:29:00,
2015-01-30 15:40:00,37.8,18.3,30.45,NW,306,2.0,8.0,45,0.00,,,0.00,Wunderground v.1.15,2015-01-30 20:40:00,
2015-01-30 15:50:00,38.0,19.0,30.46,East,81,3.0,3.0,46,0.00,,,0.00,Wunderground v.1.15,2015-01-30 20:50:00,
2015-01-30 16:00:00,38.2,19.2,30.45,NNW,333,2.0,3.0,46,0.00,,,0.00,Wunderground v.1.15,2015-01-30 21:00:00,
2015-01-30 16:10:00,38.5,19.5,30.45,East,91,1.0,1.0,46,0.00,,,0.00,Wunderground v.1.15,2015-01-30 21:10:00,
2015-01-30 16:20:00,38.5,19.5,30.45,NNE,13,2.0,3.0,46,0.00,,,0.00,Wunderground v.1.15,2015-01-30 21:20:00,
2015-01-30 16:30:00,38.5,20.0,30.44,NE,51,1.0,1.0,47,0.00,,,0.00,Wunderground v.1.15,2015-01-30 21:30:00,
2015-01-30 16:39:00,38.6,20.1,30.45,ENE,63,0.0,0.0,47,0.00,,,0.00,Wunderground v.1.15,2015-01-30 21:39:00,
2015-01-30 16:49:00,37.8,18.8,30.45,North,5,3.0,5.0,46,0.00,,,0.00,Wunderground v.1.15,2015-01-30 21:49:00,
2015-01-30 17:00:00,37.3,18.9,30.45,NE,49,2.0,2.0,47,0.00,,,0.00,Wunderground v.1.15,2015-01-30 22:00:00,
2015-01-30 17:10:00,37.2,20.2,30.45,ENE,66,1.0,1.0,50,0.00,,,0.00,Wunderground v.1.15,2015-01-30 22:10:00,
2015-01-30 17:19:00,37.3,19.4,30.45,North,5,0.0,0.0,48,0.00,,,0.00,Wunderground v.1.15,2015-01-30 22:19:00,
2015-01-30 17:30:00,37.1,19.7,30.44,NNE,22,1.0,1.0,49,0.00,,,0.00,Wunderground v.1.15,2015-01-30 22:30:00,
2015-01-30 17:40:00,36.8,19.9,30.45,North,5,0.0,0.0,50,0.00,,,0.00,Wunderground v.1.15,2015-01-30 22:40:00,
2015-01-30 17:50:00,36.6,20.2,30.45,NNE,31,0.0,0.0,51,0.00,,,0.00,Wunderground v.1.15,2015-01-30 22:50:00,
2015-01-30 18:00:00,36.3,20.8,30.45,NNE,31,0.0,0.0,53,0.00,,,0.00,Wunderground v.1.15,2015-01-30 23:00:00,
2015-01-30 18:10:00,36.1,20.2,30.45,NNE,31,0.0,0.0,52,0.00,,,0.00,Wunderground v.1.15,2015-01-30 23:10:00,
2015-01-30 18:20:00,35.8,19.4,30.45,NNE,31,0.0,0.0,51,0.00,,,0.00,Wunderground v.1.15,2015-01-30 23:20:00,
2015-01-30 18:30:00,35.4,20.4,30.45,NNE,31,0.0,0.0,54,0.00,,,0.00,Wunderground v.1.15,2015-01-30 23:30:00,
2015-01-30 18:40:00,35.2,20.2,30.45,NNE,31,0.0,0.0,54,0.00,,,0.00,Wunderground v.1.15,2015-01-30 23:40:00,